World > North America > United States > Texas

Shep, Texas Regional Weather

Lat: 32.02N, Lon: 100.15W
Wx Zone: TXZ066Web Search

Pass this page to a friend. Tell them to point their camera at the QR Code near the bottom of this page.

Feedback


°F Click to change Shep hourly weather to Imperial units.Click to change Shep hourly weather to Metric units. °C
Shep Weather Map
UTC Time: 4/11/2021, 06:37
Your Time:

Shep, TX Regional Weather

Expires:202104110700;;368665
ASUS44 KSJT 110615
RWRSJT
WEST CENTRAL TEXAS REGIONAL WEATHER ROUNDUP
NATIONAL WEATHER SERVICE SAN ANGELO TX
100 AM CDT SUN APR 11 2021

NOTE: "FAIR" INDICATES FEW OR NO CLOUDS BELOW 12,000 FEET WITH NO
SIGNIFICANT WEATHER AND/OR OBSTRUCTIONS TO VISIBILITY.


TXZ049-054-064>066-071>073-076>078-098-099-113-114-127-128-139-140-
154-155-168>170-110700-
...LOCATIONS ACROSS WEST CENTRAL TEXAS...
  
CITY           SKY/WX    TMP DP  RH WIND       PRES   REMARKS
SAN ANGELO     CLEAR     54  26  34 S5        29.83S                  
ABILENE        CLEAR     51  31  46 SE7       29.81F                  
DYESS AFB      CLEAR     49  26  41 CALM      29.81S                  
JUNCTION       CLEAR     51  34  52 CALM      29.86S                  
SWEETWATER     CLEAR     53  25  33 SE9       29.83F                  
BROWNWOOD      PTCLDY    48  36  61 CALM      29.83F                  
COLEMAN        NOT AVBL                                               
SONORA         CLEAR     59  28  31 CALM      29.89S                  
OZONA          FAIR      54  23  30 CALM      29.87S                  
BRADY          PTCLDY    55  28  35 SE3       29.85S                  
$$


SKY/WX - Weather  TMP - Temperature  DP - Dew Point  RH - Relative Humidity
WIND - Wind Direction/Speed PRES - Barometric Pressure VSB - Visibility
WCI - Wind Chill Index E13G22 Wind - East Wind 13 mph/Gusts of 22 mph